Charlotte, NC

1:55 PM EDT on July 27, 2016 (GMT -0400)
Charlotte-Douglas International

Weather History for KCLT - December, 2012

Change the Weather History Date:

Wednesday, December 26, 2012

  Actual Average Record
Temperature  
Mean Temperature 47 °F 40 °F  
Max Temperature 53 °F 51 °F 76 °F (1889)
Min Temperature 40 °F 30 °F 6 °F (1983)
Degree Days  
Heating Degree Days 18 24  
Month to date heating degree days 368 576  
Since 1 July heating degree days 1054 1212  
Cooling Degree Days 0 0  
Month to date cooling degree days 0 0  
Year to date cooling degree days 1790 1517  
Moisture  
Dew Point 43 °F    
Average Humidity 79    
Maximum Humidity 93    
Minimum Humidity 65    
Precipitation  
Precipitation 1.72 in 0.11 in 1.72 in (2012)
Month to date precipitation 3.56 2.74  
Year to date precipitation 33.41 41.12  
Snow  
Snow 0.00 in 0.00 in 1.60 in (2010)
Month to date snowfall 0.0 0.2  
Since 1 July snowfall 0.0 0.3  
Snow Depth 0.00 in    
Sea Level Pressure  
Sea Level Pressure 29.66 in    
Wind  
Wind Speed 10 mph (NE)    
Max Wind Speed 25 mph    
Max Gust Speed 35 mph    
Visibility 6 miles    
Events Rain    
T = Trace of Precipitation, MM = Missing Value Source: NWS Daily Summary

Daily Weather History Graph

Daily Weather History Graph

Search for Another Location

Airport or City:

Trip Planner

Search our weather history database for the weather conditions in past years. The results will help you decide how hot, cold, wet, or windy it might be!

Date:

Astronomy

Dec. 26, 2012 Rise Set
Actual Time 7:30 AM EST 5:18 PM EST
Civil Twilight 7:02 AM EST 5:46 PM EST
Nautical Twilight 6:30 AM EST 6:18 PM EST
Astronomical Twilight 5:59 AM EST 6:49 PM EST
Moon 4:09 PM EST (12/26) 5:54 AM EST (12/26)
Length of Visible Light 10h 44m
Length of Day
9h 47m
Waxing Gibbous, 97% of the Moon is Illuminated
Dec 26
Waxing Gibbous
Dec 28
Full
Jan 4
Last Quarter
Jan 11
New
Jan 18
First Quarter

Hourly Weather History & Observations

Time (EST) Temp. Windchill Dew Point Humidity Pressure Visibility Wind Dir Wind Speed Gust Speed Precip Events Conditions
12:23 AM 51.8 °F - 46.4 °F 82% 29.97 in 7.0 mi ENE 9.2 mph - N/A   Overcast
12:52 AM 50.0 °F - 46.4 °F 87% 29.96 in 6.0 mi East 10.4 mph - N/A Rain Light Rain
1:39 AM 50.0 °F - 46.4 °F 87% 29.92 in 6.0 mi East 16.1 mph 20.7 mph 0.00 in   Overcast
1:52 AM 50.0 °F - 46.0 °F 86% 29.90 in 6.0 mi ENE 16.1 mph - 0.00 in   Overcast
2:52 AM 50.0 °F - 46.0 °F 86% 29.85 in 7.0 mi East 17.3 mph 25.3 mph N/A   Overcast
3:52 AM 48.9 °F - 46.0 °F 90% 29.81 in 6.0 mi East 11.5 mph - 0.00 in Rain Rain
4:26 AM 48.2 °F - 46.4 °F 93% 29.79 in 2.0 mi ENE 11.5 mph 24.2 mph 0.09 in Rain Heavy Rain
4:34 AM 48.2 °F - 46.4 °F 93% 29.79 in 1.8 mi ENE 5.8 mph 20.7 mph 0.13 in Rain Rain
4:52 AM 46.9 °F - 44.1 °F 90% 29.79 in 1.5 mi East 16.1 mph 23.0 mph 0.23 in Rain Heavy Rain
5:52 AM 45.0 °F 40.1 °F 43.0 °F 93% 29.75 in 1.8 mi NE 9.2 mph - 0.44 in Rain Heavy Rain
6:13 AM 44.6 °F 40.7 °F 42.8 °F 93% 29.76 in 1.5 mi ENE 6.9 mph - 0.14 in Rain Heavy Rain
6:34 AM 44.6 °F 37.4 °F 44.6 °F 100% 29.73 in 2.0 mi East 16.1 mph - 0.27 in Rain Heavy Rain
6:46 AM 44.6 °F 37.2 °F 42.8 °F 93% 29.71 in 2.0 mi East 17.3 mph 23.0 mph 0.31 in Rain Rain
6:52 AM 45.0 °F 37.4 °F 43.0 °F 93% 29.72 in 2.0 mi East 18.4 mph 24.2 mph 0.33 in Rain Rain
7:00 AM 46.4 °F 38.7 °F 42.8 °F 87% 29.71 in 3.0 mi East 20.7 mph 34.5 mph 0.01 in Rain Light Rain
7:10 AM 46.4 °F 38.5 °F 44.6 °F 93% 29.67 in 4.0 mi East 21.9 mph 27.6 mph 0.02 in Rain Light Rain
7:28 AM 46.4 °F 40.1 °F 44.6 °F 93% 29.63 in 4.0 mi East 15.0 mph 28.8 mph 0.03 in Rain Light Rain
7:52 AM 46.9 °F - 44.1 °F 90% 29.64 in 3.0 mi East 16.1 mph 23.0 mph 0.06 in Rain Heavy Rain
8:52 AM 46.9 °F - 45.0 °F 93% 29.57 in 3.0 mi East 24.2 mph 32.2 mph 0.27 in Rain Rain
8:56 AM 46.4 °F 38.7 °F 44.6 °F 93% 29.56 in 1.8 mi ESE 20.7 mph 32.2 mph 0.02 in Rain Rain
9:31 AM 48.2 °F - 46.4 °F 93% 29.62 in 1.8 mi Calm Calm - 0.30 in Rain Heavy Rain
9:52 AM 48.9 °F - 46.9 °F 93% 29.61 in 1.0 mi North 5.8 mph - 0.37 in Rain Light Rain
10:01 AM 48.2 °F - 46.4 °F 93% 29.62 in 4.0 mi North 4.6 mph - 0.01 in Rain Rain
10:38 AM 51.8 °F - 48.2 °F 88% 29.57 in 7.0 mi NE 8.1 mph - 0.02 in   Mostly Cloudy
10:52 AM 51.1 °F - 48.9 °F 92% 29.59 in 7.0 mi North 5.8 mph - 0.02 in   Mostly Cloudy
10:59 AM 51.8 °F - 48.2 °F 88% 29.60 in 10.0 mi NW 8.1 mph - N/A   Overcast
11:52 AM 52.0 °F - 48.9 °F 89% 29.52 in 10.0 mi NE 8.1 mph - N/A   Overcast
12:52 PM 52.0 °F - 48.0 °F 86% 29.49 in 10.0 mi NE 6.9 mph - N/A   Overcast
1:52 PM 52.0 °F - 48.0 °F 86% 29.46 in 10.0 mi NNW 3.5 mph - N/A   Overcast
2:26 PM 51.8 °F - 46.4 °F 82% 29.46 in 10.0 mi NNW 5.8 mph - N/A   Overcast
2:52 PM 50.0 °F - 46.9 °F 89% 29.48 in 10.0 mi WNW 5.8 mph - N/A   Overcast
3:19 PM 48.2 °F - 46.4 °F 93% 29.49 in 10.0 mi Variable 6.9 mph - N/A   Overcast
3:52 PM 48.0 °F - 45.0 °F 89% 29.51 in 10.0 mi West 11.5 mph 19.6 mph N/A   Overcast
4:52 PM 46.9 °F - 39.9 °F 77% 29.53 in 10.0 mi West 9.2 mph 17.3 mph N/A   Overcast
5:48 PM 46.4 °F 41.5 °F 37.4 °F 71% 29.56 in 10.0 mi West 10.4 mph 21.9 mph N/A   Overcast
5:52 PM 46.0 °F 40.6 °F 37.0 °F 71% 29.56 in 10.0 mi West 11.5 mph 19.6 mph N/A   Overcast
6:34 PM 44.6 °F 38.4 °F 35.6 °F 71% 29.59 in 10.0 mi West 12.7 mph 21.9 mph N/A   Overcast
6:52 PM 45.0 °F 39.3 °F 35.1 °F 68% 29.60 in 10.0 mi WSW 11.5 mph 18.4 mph 0.00 in   Overcast
7:45 PM 44.6 °F 38.4 °F 35.6 °F 71% 29.62 in 10.0 mi WSW 12.7 mph 17.3 mph N/A   Mostly Cloudy
7:52 PM 43.0 °F 36.8 °F 35.1 °F 74% 29.62 in 10.0 mi WSW 11.5 mph - N/A   Mostly Cloudy
8:52 PM 43.0 °F 37.2 °F 35.1 °F 74% 29.65 in 10.0 mi WSW 10.4 mph 17.3 mph 0.00 in   Mostly Cloudy
9:52 PM 42.1 °F 37.1 °F 34.0 °F 73% 29.67 in 10.0 mi West 8.1 mph - N/A   Mostly Cloudy
10:52 PM 41.0 °F 35.8 °F 30.0 °F 65% 29.70 in 10.0 mi West 8.1 mph - N/A   Partly Cloudy
11:52 PM 39.9 °F 37.8 °F 28.9 °F 65% 29.73 in 10.0 mi West 3.5 mph - N/A   Partly Cloudy